OPTUS 10

Last updated on Jan. 19, 2020, 4:37 a.m. UTC

1 40146U 14054A   20018.76770284 -.00000152  00000-0  00000+0 0  9999
2 40146   0.0879  13.7721 0002905 261.3482 274.8711  1.00272941 19640
UTC
Height (km)
Latitude
Longitude
Inclination
Orbital Period
UTC large
Height (km)
Speed (km/s)
/
Latitude / Longitude
Inclination (degrees)
Orbital Period (minutes)
Azimuth
Elevation
Range (km)
Doppler Factor
iOS Compass Heading
iOS Angle

Next 30 passes for location: Hong Kong

Rise time Rise Azimuth (degrees) Set time Set Azimuth (degrees) Duration Max altitude (degrees)

No matching passes for this satellites